Weather History for KLNC - February, 2014

Change the Weather History Date:

Tuesday, February 11, 2014

  Actual Average (KDFW) Record (KDFW)
Temperature  
Mean Temperature 30 °F 49 °F  
Max Temperature 32 °F 60 °F 88 °F (1922)
Min Temperature 29 °F 38 °F 10 °F (1981)
Degree Days  
Heating Degree Days 34 16  
Month to date heating degree days 188  
Since 1 July heating degree days 1693  
Cooling Degree Days 0 0  
Month to date cooling degree days 0  
Year to date cooling degree days 2  
Moisture  
Dew Point 26 °F    
Average Humidity 82    
Maximum Humidity 90    
Minimum Humidity 73    
Precipitation  
Precipitation 0.05 in 0.10 in 1.19 in (1977)
Month to date precipitation 0.95  
Year to date precipitation 3.08  
Snow  
Snow 0.00 in 0.00 in 11.20 in (2010)
Month to date snowfall 0.2  
Since 1 July snowfall 0.8  
Snow Depth -    
Sea Level Pressure  
Sea Level Pressure 30.28 in    
Wind  
Wind Speed 9 mph (North)    
Max Wind Speed 20 mph    
Max Gust Speed 28 mph    
Visibility 8 miles    
Events Rain , Snow    
T = Trace of Precipitation, MM = Missing Value Source: NWS Daily Summary

Daily Weather History Graph

Daily Weather History Graph

Search for Another Location

Airport or City:

Trip Planner

Search our weather history database for the weather conditions in past years. The results will help you decide how hot, cold, wet, or windy it might be!

Date:

Astronomy

Feb. 11, 2014 Rise Set
Actual Time 7:13 AM CST 6:09 PM CST
Civil Twilight 6:48 AM CST 6:34 PM CST
Nautical Twilight 6:19 AM CST 7:03 PM CST
Astronomical Twilight 5:50 AM CST 7:32 PM CST
Moon 3:34 PM CST (2/11) 4:46 AM CST (2/11)
Length of Visible Light 11h 46m
Length of Day
10h 55m
Waxing Gibbous, 91% of the Moon is Illuminated
Feb 11
Waxing Gibbous
Feb 14
Full
Feb 22
Last Quarter
Mar 1
New
Mar 8
First Quarter

Hourly Weather History & Observations

Time (CST) Temp. Windchill Dew Point Humidity Pressure Visibility Wind Dir Wind Speed Gust Speed Precip Events Conditions
12:15 AM 30.9 °F 22.8 °F 28.2 °F 90% 30.28 in 4.0 mi North 9.2 mph - N/A   Overcast
12:35 AM 30.9 °F 21.7 °F 28.0 °F 89% 30.28 in 4.0 mi North 11.5 mph - N/A   Overcast
12:55 AM 30.7 °F 21.4 °F 27.5 °F 88% 30.28 in 4.0 mi North 11.5 mph 17.3 mph N/A   Overcast
1:15 AM 30.6 °F 21.8 °F 27.3 °F 88% 30.29 in 4.0 mi North 10.4 mph 16.1 mph N/A   Overcast
1:35 AM 30.7 °F 22.0 °F 27.3 °F 87% 30.28 in 4.0 mi North 10.4 mph - N/A   Overcast
1:55 AM 30.7 °F 22.6 °F 27.1 °F 86% 30.28 in 4.0 mi North 9.2 mph - N/A   Overcast
2:15 AM 30.7 °F 23.3 °F 27.1 °F 86% 30.28 in 5.0 mi North 8.1 mph - N/A   Overcast
2:35 AM 30.7 °F 22.6 °F 26.6 °F 85% 30.28 in 5.0 mi North 9.2 mph - N/A   Overcast
2:55 AM 30.7 °F 23.3 °F 26.6 °F 85% 30.27 in 5.0 mi North 8.1 mph - N/A   Haze
3:15 AM 30.7 °F 23.3 °F 26.2 °F 83% 30.28 in 5.0 mi North 8.1 mph - N/A   Haze
3:35 AM 30.7 °F 22.6 °F 26.4 °F 84% 30.28 in 5.0 mi North 9.2 mph - N/A   Haze
3:55 AM 30.7 °F 22.0 °F 26.4 °F 84% 30.29 in 5.0 mi North 10.4 mph - N/A   Haze
4:15 AM 30.7 °F 22.6 °F 26.4 °F 84% 30.29 in 7.0 mi North 9.2 mph - N/A   Overcast
4:35 AM 30.6 °F 20.7 °F 25.9 °F 83% 30.28 in 7.0 mi North 12.7 mph - N/A   Overcast
4:55 AM 30.4 °F 21.0 °F 25.3 °F 82% 30.27 in 7.0 mi North 11.5 mph 16.1 mph N/A   Overcast
5:15 AM 30.2 °F 21.3 °F 24.8 °F 80% 30.27 in 10.0 mi North 10.4 mph - N/A   Overcast
5:35 AM 30.2 °F 21.9 °F 24.4 °F 79% 30.28 in 10.0 mi North 9.2 mph - N/A   Overcast
5:55 AM 30.2 °F 21.3 °F 24.1 °F 78% 30.29 in 10.0 mi North 10.4 mph - N/A   Mostly Cloudy
6:15 AM 30.2 °F 24.3 °F 24.3 °F 79% 30.30 in 10.0 mi North 5.8 mph - N/A   Mostly Cloudy
6:35 AM 30.2 °F 22.6 °F 24.4 °F 79% 30.30 in 10.0 mi North 8.1 mph - N/A   Overcast
6:55 AM 30.0 °F 22.4 °F 23.7 °F 77% 30.31 in 10.0 mi North 8.1 mph 16.1 mph N/A   Mostly Cloudy
7:15 AM 29.7 °F 22.0 °F 23.5 °F 78% 30.31 in 10.0 mi North 8.1 mph - N/A   Mostly Cloudy
7:35 AM 29.7 °F 18.6 °F 23.9 °F 79% 30.31 in 10.0 mi North 15.0 mph 21.9 mph N/A   Mostly Cloudy
7:55 AM 29.3 °F 17.3 °F 23.5 °F 79% 30.33 in 10.0 mi North 17.3 mph - N/A   Scattered Clouds
8:15 AM 29.7 °F 18.2 °F 23.5 °F 78% 30.32 in 7.0 mi North 16.1 mph 21.9 mph N/A   Clear
8:35 AM 29.7 °F 18.2 °F 23.4 °F 77% 30.32 in 10.0 mi North 16.1 mph 19.6 mph N/A   Clear
8:55 AM 29.5 °F 16.8 °F 22.8 °F 76% 30.32 in 10.0 mi NNE 19.6 mph 26.5 mph N/A   Scattered Clouds
9:15 AM 30.0 °F 19.1 °F 23.0 °F 75% 30.31 in 10.0 mi NNE 15.0 mph 27.6 mph N/A   Scattered Clouds
9:35 AM 29.8 °F 19.3 °F 22.5 °F 74% 30.31 in 10.0 mi NNE 13.8 mph 26.5 mph N/A   Scattered Clouds
9:55 AM 30.2 °F 21.3 °F 22.8 °F 74% 30.34 in 10.0 mi North 10.4 mph 16.1 mph N/A   Overcast
10:15 AM 30.0 °F 23.2 °F 22.6 °F 74% 30.34 in 10.0 mi North 6.9 mph - N/A   Overcast
10:35 AM 30.2 °F 21.9 °F 22.5 °F 73% 30.34 in 10.0 mi NNE 9.2 mph - N/A Rain Light Freezing Rain
10:55 AM 30.2 °F 21.3 °F 23.7 °F 77% 30.33 in 10.0 mi North 10.4 mph - N/A Rain Light Freezing Rain
11:15 AM 30.2 °F 21.9 °F 23.9 °F 77% 30.33 in 10.0 mi North 9.2 mph - N/A   Light Freezing Rain
11:35 AM 30.7 °F 22.6 °F 24.6 °F 78% 30.32 in 10.0 mi North 9.2 mph - N/A   Light Freezing Rain
11:55 AM 30.6 °F 22.4 °F 23.7 °F 76% 30.32 in 10.0 mi North 9.2 mph - N/A   Mostly Cloudy
12:15 PM 30.6 °F 24.7 °F 23.9 °F 76% 30.32 in 10.0 mi North 5.8 mph - N/A   Light Freezing Rain
12:35 PM 30.6 °F 23.8 °F 24.8 °F 79% 30.29 in 7.0 mi North 6.9 mph - N/A Rain Light Freezing Rain
12:55 PM 30.7 °F 24.1 °F 26.2 °F 83% 30.27 in 3.0 mi NNE 6.9 mph - 0.01 in Rain Light Freezing Rain
1:15 PM 30.7 °F 21.4 °F 26.6 °F 85% 30.26 in 4.0 mi North 11.5 mph - N/A Rain Light Freezing Rain
1:35 PM 30.7 °F 22.0 °F 26.2 °F 83% 30.26 in 4.0 mi North 10.4 mph - 0.01 in Rain Light Freezing Rain
1:55 PM 30.6 °F 22.4 °F 25.5 °F 82% 30.26 in 3.0 mi North 9.2 mph - 0.02 in Rain Light Freezing Rain
2:15 PM 30.6 °F 23.8 °F 26.2 °F 84% 30.27 in 2.5 mi North 6.9 mph - 0.02 in Snow Light Snow
2:35 PM 30.7 °F 24.1 °F 26.4 °F 84% 30.26 in 5.0 mi NNW 6.9 mph - 0.02 in   Overcast
2:55 PM 30.9 °F 24.3 °F 25.7 °F 81% 30.26 in 10.0 mi NNW 6.9 mph - 0.02 in   Overcast
3:15 PM 31.1 °F 25.4 °F 25.5 °F 80% 30.25 in 10.0 mi North 5.8 mph - N/A   Overcast
3:35 PM 31.3 °F 26.6 °F 25.7 °F 80% 30.26 in 10.0 mi North 4.6 mph - N/A   Overcast
3:55 PM 31.6 °F - 26.1 °F 80% 30.25 in 10.0 mi Calm Calm - N/A   Overcast
4:15 PM 31.8 °F - 26.4 °F 80% 30.25 in 10.0 mi Calm Calm - N/A   Overcast
4:35 PM 32.0 °F - 26.6 °F 80% 30.24 in 10.0 mi Calm Calm - N/A   Overcast
4:55 PM 32.0 °F - 27.1 °F 82% 30.25 in 7.0 mi Calm Calm - N/A Rain Light Rain
5:15 PM 32.0 °F - 27.5 °F 83% 30.25 in 7.0 mi Calm Calm - N/A   Overcast
5:35 PM 32.0 °F - 27.7 °F 84% 30.24 in 10.0 mi Calm Calm - N/A   Overcast
5:55 PM 32.0 °F - 28.4 °F 87% 30.24 in 10.0 mi Calm Calm - N/A   Overcast
6:15 PM 32.0 °F - 28.6 °F 87% 30.24 in 10.0 mi Calm Calm - N/A   Light Drizzle
6:35 PM 32.0 °F - 28.4 °F 87% 30.25 in 7.0 mi Calm Calm - N/A Rain Rain
6:55 PM 32.2 °F - 28.9 °F 88% 30.25 in 10.0 mi Calm Calm - N/A Rain Light Rain
7:15 PM 32.5 °F 29.3 °F 28.2 °F 84% 30.26 in 10.0 mi NNW 3.5 mph - N/A   Overcast
7:35 PM 32.5 °F 28.1 °F 28.4 °F 85% 30.26 in 10.0 mi North 4.6 mph - N/A   Overcast
7:55 PM 32.9 °F 29.8 °F 28.4 °F 84% 30.28 in 10.0 mi NNW 3.5 mph - N/A Rain Light Rain
8:15 PM 32.5 °F - 29.3 °F 88% 30.27 in 7.0 mi Calm Calm - N/A Rain Light Rain
8:35 PM 32.9 °F 29.8 °F 28.8 °F 85% 30.28 in 10.0 mi NNW 3.5 mph - N/A   Overcast
8:55 PM 32.5 °F 25.5 °F 28.4 °F 85% 30.28 in 10.0 mi NNW 8.1 mph - N/A   Overcast
9:15 PM 32.0 °F 25.6 °F 28.0 °F 85% 30.27 in 10.0 mi North 6.9 mph - N/A   Overcast
9:35 PM 32.0 °F 27.5 °F 27.5 °F 83% 30.27 in 10.0 mi North 4.6 mph - N/A   Overcast
9:55 PM 32.0 °F 27.5 °F 28.0 °F 85% 30.25 in 10.0 mi NE 4.6 mph - N/A   Overcast
10:15 PM 32.0 °F 28.7 °F 28.0 °F 85% 30.24 in 10.0 mi NE 3.5 mph - N/A   Overcast
10:35 PM 32.0 °F 27.5 °F 27.5 °F 83% 30.24 in 10.0 mi NNE 4.6 mph - N/A   Overcast
10:55 PM 32.0 °F 27.5 °F 27.3 °F 83% 30.25 in 10.0 mi North 4.6 mph - N/A   Overcast
11:15 PM 32.0 °F 27.5 °F 27.0 °F 82% 30.24 in 10.0 mi North 4.6 mph - N/A   Overcast
11:35 PM 32.0 °F 27.5 °F 27.0 °F 82% 30.25 in 10.0 mi North 4.6 mph - N/A   Overcast
11:55 PM 32.0 °F 28.7 °F 27.0 °F 82% 30.25 in 10.0 mi NNW 3.5 mph - N/A   Overcast